Location: Ballingbuur
(53.0000°N, 5.7667°E)
Time: 20:50:35
(UTC+00:00)

Iridium 2 - Pass Details

Date: 29 November 2020
Orbit: 504 x 513 km, 85.5° (Epoch: 24 January)

Event Time Altitude Azimuth Distance (km) Brightness Sun altitude
Rises 06:39:13 0° 357° (N) 2,622 7.0 -6.7°
Reaches altitude 10° 06:41:23 10° 1° (N) 1,731 6.1 -6.4°
Maximum altitude 06:45:06 56° 81° (E) 609 4.4 -5.9°
Drops below altitude 10° 06:48:48 10° 160° (SSE) 1,716 7.2 -5.4°
Sets 06:50:56 0° 165° (SSE) 2,596 8.0 -5.1°
